User: anonymous   Login
Location: Fort Wayne
(41.1310°N, 85.1290°W)
Time: 22:30:26
(UTC-04:00)
Language:

Iridium 37 - Orbit

View from above orbital plane
View from above orbital plane
View from above satellite
View from above satellite

Ground track
Ground track

The orbit data is extracted from the following two-line orbital elements,

1 24968U 97056D   15187.26162187  .00000310  00000-0  10372-3 0  9991
2 24968 086.3966 256.4187 0002276 094.0337 266.1119 14.34220636930497
Epoch (UTC): 06 July 2015 06:16:44
Eccentricity: 0.0002276
inclination: 86.3966°
perigee height: 776 km
apogee height: 779 km
right ascension of ascending node: 256.4187°
argument of perigee: 94.0337°
revolutions per day: 14.34220636
mean anomaly at epoch: 266.1119°
orbit number at epoch: 93049

The dashed part of the orbit path shows where the satellite is in the earth's shadow,  

DLR